Content
SEND FEEDBACK

Daily
Averages
Monthly
Summary
United States of America

GENOA, NEVADA


Home > North America > United States > Nevada
Elevation: 733 feet     Latitude: 38 59N     Longitude: 119 53W

WEATHER
 
SELECT A DAY
Number of Records: 177,004;   Date Range: 1/1/95 - 10/21/14
 
SHARE

PRINT THIS DATA

[ ← Previous Day ]
WEATHER ALMANAC - FEBRUARY 10, 2013
[ Next Day → ]
[ °C ]   °F
Weather ElementAverageHighLow
Temperature25.3 °F35.1 °F (1:53 pm)10.9 °F (5:53 am)
Dewpoint10.1 °F15.1 °F (11:53 am)5 °F (6:53 am)
Humidity54.7 %81 % (5:53 am)38 % (2:53 pm)
Barometer30.09 in30.16 in (7:53 am)30.04 in (1:53 pm)
Wind Speed6.9 mph13.8 mph (11:53 am)
Wind Gust23 mph (12:53 pm)
Weather ElementAverage
Visibility10 mi
Wind DirectionENE (60.9 °)

Weather ElementTotal
Precipitation---
Heating Degree Days42 (Base 65)
Averaged from 22 records on February 10, 2013
WEATHER CONDITIONS BREAKOUT
WIND DIRECTION BREAKOUT
WEATHER BY HOUR - FEBRUARY 10, 2013
[ °C ]   °F
Local TimeTemperatureDewpointHumidityBarometerVisibilityWind DirectionWind SpeedGust SpeedPrecipitationEventsConditions
1:53 AM15.1 °F7.0 °F70 %30.09 in10.0 miSSW (210°)4.6 mphClear
2:53 AM15.1 °F8.1 °F74 %30.08 in10.0 miSW (220°)3.5 mphClear
3:53 AM14.0 °F8.1 °F77 %30.07 in10.0 miCalmClear
5:53 AM10.9 °F6.1 °F81 %30.13 in10.0 miCalmClear
6:53 AM10.9 °F5.0 °F77 %30.14 in10.0 miCalmClear
7:53 AM10.9 °F5.0 °F77 %30.16 in10.0 miSouth (190°)3.5 mphClear
8:53 AM19.9 °F10.9 °F68 %30.12 in10.0 miSouth (180°)3.5 mphClear
9:53 AM33.1 °F12.9 °F43 %30.05 in10.0 miNNE (20°)10.4 mph17.3 mphClear
10:53 AM33.1 °F14.0 °F46 %30.07 in10.0 miNorth (10°)8.1 mph17.3 mphClear
11:53 AM32.0 °F15.1 °F50 %30.08 in10.0 miNNE (30°)13.8 mph20.7 mphClear
12:53 PM33.1 °F14.0 °F46 %30.05 in10.0 miNNE (20°)12.7 mph23.0 mphClear
1:53 PM35.1 °F12.0 °F39 %30.04 in10.0 miNNE (20°)12.7 mph19.6 mphClear
2:53 PM34.0 °F10.9 °F38 %30.05 in10.0 miNorth (10°)10.4 mph23.0 mphClear
3:53 PM33.1 °F10.9 °F40 %30.07 in10.0 miNorth (360°)9.2 mph21.9 mphClear
4:53 PM30.9 °F12.9 °F47 %30.09 in10.0 miNorth (10°)9.2 mph16.1 mphPartly Cloudy
5:53 PM30.0 °F12.0 °F47 %30.11 in10.0 miNNE (20°)8.1 mphClear
6:53 PM28.9 °F10.9 °F47 %30.13 in10.0 miNNE (20°)11.5 mph17.3 mphClear
7:53 PM28.9 °F10.0 °F45 %30.14 in10.0 miNNE (20°)10.4 mph18.4 mphClear
8:53 PM28.0 °F10.0 °F47 %30.11 in10.0 miVariable5.8 mphClear
9:53 PM27.0 °F9.0 °F47 %30.06 in10.0 miVariable3.5 mphClear
10:53 PM26.1 °F9.0 °F49 %30.05 in10.0 miVariable4.6 mphClear
11:53 PM26.1 °F9.0 °F49 %30.07 in10.0 miVariable5.8 mphClear
Hourly data recorded from KTVL, located miles away from Genoa, Nevada







STORIES FROM OUR PARTNERS